Tracking 31029 objects as of 15-Jul-2025
HD Live streaming from Space Station
objects crossing your sky now

ATLAS AGENA B DEB

Track ATLAS AGENA B DEB now!
10-day predictions


NORAD ID: 3121
Int'l Code: 1963-030F
Perigee: 3,675.2 km
Apogee: 3,741.0 km
Inclination: 88.4 °
Period: 167.8 minutes
Semi major axis: 10079 km
RCS: 0.1321 m2 (medium)
Launch date: July 19, 1963
Source: United States (US)
Launch site: AIR FORCE WESTERN TEST RANGE (AFWTR)

Note: This is SATELLITE DEBRIS
Your satellite tracking list
Your tracking list is empty




NASA's NSSDC Master Catalog

Two Line Element Set (TLE):
1 03121U 63030F   25196.28783123 -.00000017  00000-0 -96268-2 0  9999
2 03121  88.4164 227.2246 0032619  44.3888 315.9569  8.57968102177875
Source of the keplerian elements: AFSPC